sat.trackr.live / text

‹ back to catalog

ONEWEB-0633

NORAD 56074 · 2023-043AE

PAYLOAD ACTIVE UNKNOWN

§ Identity

Operator
Country
UK
Launch date
2023-03-26
Launch site
SRILR
Launch vehicle
Mass (kg)
RCS (m²)

Purposes: comms

External: N2YO · Heavens-Above · Gunter

§ Orbital elements

Epoch: 2026-05-25T01:00:04.699584Z

Period
109.46 min
Inclination
87.8999°
Eccentricity
0.0001489
Mean motion
13.15549511 rev/d
Perigee alt
1,200.6 km
Apogee alt
1,202.9 km
Semi-major
7,579.9 km
B*
-2.4471e-4
RAAN
263.7991°
Arg perigee
101.0500°
Mean anomaly
259.0798°
Rev number
15,336

§ Raw data

ONEWEB-06331 56074U 23043AE  26145.04172106 -.00000079  00000+0 -24471-3 0  99912 56074  87.8999 263.7991 0001489 101.0500 259.0798 13.15549511153363

JSON: /api/v1/satellites/56074 · /tle

For live sub-satellite position, see the globe view (requires WebGL).

§ Visibility from observer

Set your observer location to see the next 7 days of passes ≥ 10°. The values pass through the URL so the page stays shareable.

No JS? Fill the form by hand. The geolocation button needs JavaScript.